Location: Quedlinburg
(51.7921°N, 11.1414°E)
Time: 20:56:30
(UTC+02:00)

CUBESAT XI-V - Pass Details

Date: 17 March 2026
Orbit: 643 x 664 km, 98.3° (Epoch: 14 April)

Event Time Altitude Azimuth Distance (km) Brightness Sun altitude
Exits shadow 04:14:55 17° 313° (NW) 1,657 ? -20.4°
Drops below altitude 10° 04:16:14 10° 325° (NW) 2,068 ? -20.2°
Sets 04:18:44 0° 337° (NNW) 2,981 ? -19.9°
